Weather History for Alva, OK

Change the Weather History Date:

Monday, March 4, 2013

  Actual Average Record
Temperature  
Mean Temperature 38 °F -  
Max Temperature 44 °F 53 °F 81 °F (1956)
Min Temperature 32 °F 29 °F 4 °F (1960)
Degree Days  
Heating Degree Days 27    
Moisture  
Dew Point 33 °F    
Average Humidity 80    
Maximum Humidity 100    
Minimum Humidity 61    
Precipitation  
Precipitation 0.00 in - - ()
Sea Level Pressure  
Sea Level Pressure 29.74 in    
Wind  
Wind Speed 12 mph (North)    
Max Wind Speed 32 mph    
Max Gust Speed 43 mph    
Visibility 10 miles    
Events      
Averages and records for this station are not official NWS values.
T = Trace of Precipitation, MM = Missing Value Source: NWS Daily Summary

Daily Weather History Graph

Daily Weather History Graph

Search for Another Location

Airport:

Trip Planner

Search our weather history database for the weather conditions in past years. The results will help you decide how hot, cold, wet, or windy it might be!

Date:

Astronomy

Mar. 04, 2013 Rise Set
Actual Time 7:00 AM CST 6:32 PM CST
Civil Twilight 6:35 AM CST 6:58 PM CST
Nautical Twilight 6:05 AM CST 7:28 PM CST
Astronomical Twilight 5:35 AM CST 7:58 PM CST
Moon 1:05 AM CST (3/4) 11:21 AM CST (3/4)
Length of Visible Light 12h 23m
Length of Day
11h 31m
Waning Gibbous, 52% of the Moon is Illuminated
Mar 4
Waning Gibbous
Mar 4
Last Quarter
Mar 11
New
Mar 19
First Quarter
Mar 27
Full

Hourly Weather History & Observations

Time (CST) Temp. Windchill Dew Point Humidity Pressure Visibility Wind Dir Wind Speed Gust Speed Precip Events Conditions
12:10 AM 39.2 °F 33.6 °F 33.8 °F 81% 29.54 in 10.0 mi NE 8.1 mph - N/A   Clear
12:30 AM 39.2 °F 33.6 °F 33.8 °F 81% 29.54 in 10.0 mi NNE 8.1 mph - N/A   Clear
12:50 AM 39.2 °F 32.5 °F 33.8 °F 81% 29.54 in 10.0 mi NE 10.4 mph - N/A   Clear
1:10 AM 37.4 °F 30.8 °F 32.0 °F 81% 29.54 in 10.0 mi NNE 9.2 mph - N/A   Clear
1:30 AM 37.4 °F 30.3 °F 32.0 °F 81% 29.54 in 10.0 mi NNE 10.4 mph - N/A   Clear
1:50 AM 37.4 °F 30.3 °F 32.0 °F 81% 29.54 in 10.0 mi NNE 10.4 mph - N/A   Clear
2:10 AM 37.4 °F 30.3 °F 32.0 °F 81% 29.53 in 10.0 mi NNE 10.4 mph - N/A   Clear
2:30 AM 35.6 °F 28.0 °F 32.0 °F 87% 29.53 in 10.0 mi NNE 10.4 mph - N/A   Clear
2:50 AM 35.6 °F 27.1 °F 32.0 °F 87% 29.53 in 10.0 mi NNE 12.7 mph - N/A   Clear
3:10 AM 35.6 °F 28.6 °F 32.0 °F 87% 29.51 in 10.0 mi NNE 9.2 mph - N/A   Clear
3:30 AM 35.6 °F 30.7 °F 32.0 °F 87% 29.52 in 10.0 mi NNE 5.8 mph - N/A   Clear
3:50 AM 35.6 °F 29.2 °F 32.0 °F 87% 29.53 in 10.0 mi North 8.1 mph - N/A   Clear
4:10 AM 35.6 °F 29.9 °F 32.0 °F 87% 29.54 in 10.0 mi NNW 6.9 mph - N/A   Clear
4:30 AM 37.4 °F 30.3 °F 32.0 °F 81% 29.54 in 10.0 mi North 10.4 mph - N/A   Clear
4:50 AM 35.6 °F 28.0 °F 32.0 °F 87% 29.54 in 10.0 mi North 10.4 mph - N/A   Clear
5:10 AM 37.4 °F 30.3 °F 32.0 °F 81% 29.55 in 10.0 mi NNW 10.4 mph - N/A   Clear
5:30 AM 37.4 °F 30.3 °F 32.0 °F 81% 29.56 in 10.0 mi North 10.4 mph - N/A   Clear
6:10 AM 32.0 °F 22.5 °F 30.2 °F 93% 29.58 in 10.0 mi NW 12.7 mph - N/A   Clear
6:30 AM 32.0 °F 23.0 °F 32.0 °F 100% 29.60 in 10.0 mi NW 11.5 mph - N/A   Clear
6:50 AM 33.8 °F 25.3 °F 32.0 °F 93% 29.61 in 10.0 mi NW 11.5 mph - N/A   Clear
7:10 AM 33.8 °F 25.8 °F 32.0 °F 93% 29.62 in 10.0 mi NW 10.4 mph - N/A   Clear
7:30 AM 33.8 °F 25.8 °F 32.0 °F 93% 29.63 in 10.0 mi NNW 10.4 mph - N/A   Clear
7:50 AM 33.8 °F 25.8 °F 32.0 °F 93% 29.64 in 10.0 mi NNW 10.4 mph - N/A   Clear
8:10 AM 35.6 °F 28.0 °F 32.0 °F 87% 29.64 in 10.0 mi NNW 10.4 mph - N/A   Clear
8:30 AM 37.4 °F 29.8 °F 32.0 °F 81% 29.64 in 10.0 mi NNW 11.5 mph - N/A   Clear
8:50 AM 37.4 °F 30.8 °F 32.0 °F 81% 29.66 in 10.0 mi NNW 9.2 mph - N/A   Clear
9:10 AM 39.2 °F 31.2 °F 32.0 °F 75% 29.66 in 10.0 mi NNW 13.8 mph - N/A   Clear
9:30 AM 39.2 °F 32.5 °F 32.0 °F 75% 29.66 in 10.0 mi NNW 10.4 mph - N/A   Clear
9:50 AM 41.0 °F 33.9 °F 32.0 °F 70% 29.67 in 10.0 mi North 12.7 mph - N/A   Clear
10:10 AM 41.0 °F 35.2 °F 32.0 °F 70% 29.69 in 10.0 mi NW 9.2 mph - N/A   Clear
10:50 AM 44.6 °F 39.2 °F 33.8 °F 66% 29.70 in 10.0 mi North 10.4 mph - N/A   Clear
11:10 AM 44.6 °F 38.1 °F 32.0 °F 61% 29.70 in 10.0 mi NNE 13.8 mph - N/A   Clear
11:50 AM 42.8 °F 34.8 °F 32.0 °F 66% 29.71 in 10.0 mi NNE 17.3 mph - N/A   Clear
12:10 PM 44.6 °F 37.4 °F 32.0 °F 61% 29.73 in 10.0 mi North 16.1 mph 25.3 mph N/A   Clear
12:50 PM 42.8 °F 34.8 °F 33.8 °F 70% 29.73 in 10.0 mi North 17.3 mph 21.9 mph N/A   Clear
1:10 PM 42.8 °F 35.1 °F 33.8 °F 70% 29.73 in 10.0 mi North 16.1 mph - N/A   Clear
1:30 PM 41.0 °F 32.5 °F 33.8 °F 76% 29.73 in 10.0 mi NNE 17.3 mph 21.9 mph N/A   Clear
1:50 PM 41.0 °F 32.8 °F 33.8 °F 76% 29.72 in 10.0 mi North 16.1 mph - N/A   Clear
2:10 PM 41.0 °F 33.9 °F 33.8 °F 76% 29.72 in 10.0 mi NNE 12.7 mph - N/A   Clear
2:30 PM 41.0 °F 32.8 °F 33.8 °F 76% 29.73 in 10.0 mi NNE 16.1 mph 19.6 mph N/A   Clear
2:50 PM 41.0 °F 32.5 °F 33.8 °F 76% 29.74 in 10.0 mi North 17.3 mph - N/A   Clear
3:10 PM 41.0 °F 32.2 °F 33.8 °F 76% 29.75 in 10.0 mi North 18.4 mph - N/A   Clear
3:30 PM 41.0 °F 32.2 °F 33.8 °F 76% 29.75 in 10.0 mi NNE 18.4 mph 24.2 mph N/A   Clear
3:50 PM 41.0 °F 32.5 °F 33.8 °F 76% 29.76 in 10.0 mi North 17.3 mph 24.2 mph N/A   Clear
4:10 PM 41.0 °F 32.5 °F 33.8 °F 76% 29.78 in 10.0 mi NNE 17.3 mph - N/A   Clear
4:30 PM 39.2 °F 30.2 °F 33.8 °F 81% 29.78 in 10.0 mi North 17.3 mph 23.0 mph N/A   Mostly Cloudy
4:50 PM 41.0 °F 32.5 °F 33.8 °F 76% 29.79 in 10.0 mi North 17.3 mph 23.0 mph N/A   Overcast
5:10 PM 39.2 °F 29.6 °F 33.8 °F 81% 29.81 in 10.0 mi North 19.6 mph 28.8 mph N/A   Mostly Cloudy
5:30 PM 39.2 °F 29.8 °F 33.8 °F 81% 29.82 in 10.0 mi North 18.4 mph 24.2 mph N/A   Partly Cloudy
5:50 PM 39.2 °F 29.8 °F 33.8 °F 81% 29.84 in 10.0 mi North 18.4 mph 24.2 mph N/A   Partly Cloudy
6:10 PM 39.2 °F 30.5 °F 33.8 °F 81% 29.86 in 10.0 mi North 16.1 mph - N/A   Scattered Clouds
6:50 PM 39.2 °F 30.2 °F 33.8 °F 81% 29.89 in 10.0 mi North 17.3 mph - N/A   Mostly Cloudy
7:10 PM 39.2 °F 30.2 °F 33.8 °F 81% 29.91 in 10.0 mi North 17.3 mph - N/A   Overcast
7:30 PM 39.2 °F 30.2 °F 33.8 °F 81% 29.94 in 10.0 mi North 17.3 mph 23.0 mph N/A   Mostly Cloudy
7:50 PM 39.2 °F 31.2 °F 32.0 °F 75% 29.96 in 10.0 mi North 13.8 mph 20.7 mph N/A   Mostly Cloudy
8:30 PM 39.2 °F 27.8 °F 32.0 °F 75% 29.99 in 10.0 mi North 27.6 mph 32.2 mph N/A   Overcast
8:50 PM 39.2 °F 28.0 °F 32.0 °F 75% 30.02 in 10.0 mi North 26.5 mph 38.0 mph N/A   Overcast
9:10 PM 39.2 °F 27.6 °F 32.0 °F 75% 30.03 in 10.0 mi North 28.8 mph 39.1 mph N/A   Overcast
9:30 PM 37.4 °F 24.6 °F 32.0 °F 81% 30.05 in 10.0 mi North 32.2 mph 42.6 mph N/A   Overcast
9:50 PM 37.4 °F 26.1 °F 32.0 °F 81% 30.06 in 10.0 mi North 24.2 mph 31.1 mph N/A   Mostly Cloudy
10:10 PM 37.4 °F 27.5 °F 32.0 °F 81% 30.08 in 10.0 mi North 18.4 mph 28.8 mph N/A   Overcast
10:30 PM 37.4 °F 26.6 °F 32.0 °F 81% 30.08 in 10.0 mi North 21.9 mph 25.3 mph N/A   Overcast
10:50 PM 37.4 °F 27.2 °F 32.0 °F 81% 30.10 in 10.0 mi North 19.6 mph 24.2 mph N/A   Overcast
11:10 PM 37.4 °F 28.5 °F 32.0 °F 81% 30.10 in 10.0 mi North 15.0 mph 23.0 mph N/A   Overcast
11:30 PM 37.4 °F 28.5 °F 30.2 °F 75% 30.14 in 10.0 mi NNW 15.0 mph - N/A   Mostly Cloudy
11:50 PM 37.4 °F 28.5 °F 28.4 °F 70% 30.14 in 10.0 mi North 15.0 mph - N/A   Overcast